[[{"header":{"parameterUnit":"m.s-1","parameterCategory":1,"la1":30.2991,"la2":30.254,"lo1":-89.0895,"lo2":-89.0444,"dx":0.0017,"dy":0.0017,"nx":28,"ny":28,"refTime":"2022-11-26T09:00:00:Z","depth":0,"parameterNumber":2,"parameterNumberName":"U-component_of_WINDS"},"data":[0,0,0,0,0,0,0,0,0,0,0,0,0,0,0,0,0,0,0,0,0,0,0,0,0,0,0,0,0,0,0,0,0,0,0,0,0,0,0,0,0,0,0,0,0,0,0,0,0,0,0,0,0,0,0,0,0,0,6.4136,6.4138,0,6.4379,6.4382,6.4384,6.4328,6.4323,6.4318,6.4314,6.457,6.458,6.4591,0,0,0,0,0,0,0,0,0,0,0,0,0,6.3628,6.3638,6.4135,6.4138,6.4141,6.4378,6.4382,6.4385,6.4328,6.4323,6.4317,6.4312,6.4566,6.4579,6.4592,0,0,0,0,0,0,0,0,0,0,0,0,0,6.3858,6.3641,6.4135,6.4141,6.4144,6.4378,6.4382,6.4386,6.433,6.4323,6.4315,6.4309,6.4562,6.4578,6.4594,6.4838,0,0,6.4645,6.4653,0,0,0,0,0,0,0,0,6.3845,6.3876,6.4137,6.4141,6.4145,6.4315,6.4297,6.4538,6.4331,6.426,6.4314,6.4306,6.4491,6.4513,6.4574,6.485,6.4861,6.4647,6.4657,6.4664,6.4669,0,0,0,0,0,0,0,6.3829,6.3866,6.4232,6.4141,6.4146,6.4135,6.4159,6.4342,6.4412,6.4265,6.4262,6.4291,6.4492,6.4558,6.458,6.4865,6.4647,6.4661,6.4672,6.4678,6.5354,6.5361,0,0,0,0,0,0,6.3809,6.3853,6.4224,6.4239,6.3974,6.4149,6.4177,6.4268,6.441,6.4424,6.4297,6.4287,6.4533,6.4561,6.4589,6.4884,6.4664,6.468,6.469,6.5346,6.5356,6.5364,0,0,0,0,0,0,6.3798,6.3842,6.4214,6.4045,6.4091,6.4165,6.4268,6.4277,6.4343,6.4433,6.4446,6.4351,6.4529,6.4565,6.4776,6.4892,6.4687,6.4703,6.5337,6.5349,6.536,6.5477,0,0,0,0,0,0,6.3784,6.3839,6.3931,6.4047,6.4101,6.4396,6.4275,6.4286,6.4371,6.4361,6.4488,6.4502,6.4526,6.4752,6.4793,6.4912,6.4716,6.5327,6.5342,6.5356,6.5463,6.5491,6.5515,0,0,0,0,0,6.3766,6.3955,6.3936,6.3981,6.4217,6.4403,6.4433,6.4455,6.4381,6.4475,6.4533,6.4498,6.4873,6.4774,6.482,6.4945,6.532,6.5338,6.5355,6.5451,6.5486,6.5515,0,0,0,0,0,0,6.3852,6.397,6.395,6.4182,6.4283,6.4393,6.4512,6.4491,6.4616,6.4602,6.4625,6.4654,6.487,6.4929,6.4816,6.5189,6.5086,6.5114,6.5143,6.5177,6.5202,6.5184,6.473,0,0,0,0,0,6.3898,6.4037,6.4134,6.4329,6.438,6.4438,6.452,6.4527,6.4633,6.4676,6.475,6.4856,6.4997,6.509,6.5225,6.5471,6.5499,6.558,6.5606,6.5627,6.5652,6.5788,6.5825,6.5423,6.5422,6.5422,0,0,6.3994,6.4076,6.4163,6.4349,6.4427,6.4573,6.4474,6.4632,6.4741,6.4701,6.4904,6.4962,6.5082,6.5312,6.5417,6.5367,6.5769,6.565,6.5666,6.5679,6.581,6.5848,6.5882,6.5435,6.5433,6.5431,0,0,6.4245,6.432,6.4491,6.4572,6.4692,6.4729,6.477,6.4884,6.492,6.5124,6.5097,6.5228,6.5471,6.5558,6.5634,6.5918,6.5891,6.5961,6.6099,6.6231,6.6263,6.6291,6.6393,6.643,6.5985,6.5985,6.5985,0,6.435,6.4566,6.4583,6.4744,6.4827,6.4795,6.4971,6.5049,6.5208,6.5267,6.5209,6.5513,6.5592,6.5842,6.5911,6.5973,6.6023,6.5947,6.6256,6.6285,6.6312,6.641,6.6448,6.5993,6.5992,6.5991,6.5991,0,6.4691,6.4842,6.4966,6.5118,6.5216,6.5383,6.5427,6.5524,6.5524,6.5568,6.5777,6.587,6.6024,6.6083,6.6085,6.6335,6.6301,6.625,6.6146,6.6357,6.645,6.6488,6.6004,6.6001,6.5999,6.5997,0,0,6.5003,6.5162,6.5207,6.5276,6.5406,6.5524,6.5691,6.5839,6.5923,6.6034,6.6176,6.6382,6.6336,6.6422,6.6433,6.6549,6.677,6.6484,6.6487,6.6535,6.7052,6.7091,6.7134,6.6753,6.676,6.6766,6.7043,0,6.5266,6.5558,6.5578,6.5842,6.5983,6.5955,6.61,6.6197,6.6243,6.637,6.6421,6.6567,6.6494,6.6546,6.6659,6.6719,6.6874,6.6699,6.6887,6.6894,6.6859,6.7182,6.7223,6.748,6.7079,6.7085,6.7089,0,6.5612,6.5731,6.6009,6.612,6.6179,6.631,6.6448,6.6569,6.6679,6.6704,6.6801,6.6796,6.697,6.686,6.71,6.6981,6.7059,6.71,6.7111,6.713,6.7005,6.7211,6.7562,6.7601,6.7147,6.7142,6.7138,0,6.5813,6.6044,6.624,6.63,6.6433,6.6526,6.6586,6.6689,6.6777,6.6898,6.6956,6.7097,6.7175,6.7285,6.732,6.7236,6.756,6.7452,6.7588,6.7587,6.7658,6.7654,6.8028,6.7707,6.7707,6.7706,6.7705,0,6.6106,6.6277,6.6332,6.6453,6.6645,6.6667,6.6857,6.6913,6.7004,6.7137,6.7122,6.7247,6.7285,6.7418,6.7446,6.7642,6.7677,6.7704,6.771,6.7706,6.7703,6.7758,6.7742,6.7716,6.7714,6.7712,6.771,0,6.6363,6.6407,6.6619,6.6727,6.6759,6.6896,6.699,6.7107,6.715,6.7318,6.7359,6.7428,6.7583,6.7628,6.7816,6.7835,6.8065,6.8054,6.8028,6.8028,6.8162,6.8149,6.8586,6.8645,6.8284,6.8288,6.829,0,6.6548,6.6679,6.6801,6.6887,6.6951,6.7091,6.7181,6.7208,6.7302,6.7438,6.754,6.7692,6.7816,6.8067,6.8135,6.8278,6.8271,6.8415,6.8293,6.8285,6.8275,6.8267,6.8281,6.8438,6.8442,6.8445,6.8447,0,6.687,6.6885,6.7013,6.715,6.7257,6.7366,6.7471,6.7544,6.7587,6.7694,6.7851,6.7947,6.8138,6.8291,6.8437,6.8501,6.8483,6.8485,6.8524,6.8522,6.8502,6.8516,6.8091,6.8475,6.8472,6.847,6.8469,6.8468,6.7098,6.7213,6.7317,6.7461,6.7543,6.7641,6.7757,6.7814,6.7945,6.8101,6.8109,6.8281,6.8389,6.8582,6.8654,6.879,6.8749,6.8805,6.882,6.8834,6.8845,6.8479,6.8817,6.8816,6.8816,6.8815,6.8815,0,6.7421,6.7486,6.7618,6.7764,6.7878,6.7848,6.7963,6.8061,6.8211,6.8312,6.8434,6.8616,6.8764,6.8843,6.8992,6.9086,6.9081,6.9124,6.9118,6.9133,6.8874,6.8825,6.9125,6.9125,6.9125,6.9125,6.9125,6.9125,6.7602,6.7796,6.7823,6.8058,6.8123,6.8289,6.8357,6.8449,6.853,6.8733,6.8855,6.8905,6.8998,6.9153,6.9288,6.9308,6.9364,6.9412,6.9427,6.9183,6.9151,6.9121,6.9076,6.9423,6.9424,6.9675,6.9677,6.9679]},{"header":{"parameterUnit":"m.s-1","parameterCategory":1,"la1":30.2991,"la2":30.254,"lo1":-89.0895,"lo2":-89.0444,"dx":0.0017,"dy":0.0017,"nx":28,"ny":28,"refTime":"2022-11-26T09:00:00:Z","depth":0,"parameterNumber":3,"parameterNumberName":"V-component_of_WINDS"},"data":[0,0,0,0,0,0,0,0,0,0,0,0,0,0,0,0,0,0,0,0,0,0,0,0,0,0,0,0,0,0,0,0,0,0,0,0,0,0,0,0,0,0,0,0,0,0,0,0,0,0,0,0,0,0,0,0,0,0,-0.4823,-0.4824,0,-0.4882,-0.4883,-0.4884,-0.4907,-0.4906,-0.4906,-0.4906,-0.4968,-0.497,-0.4972,0,0,0,0,0,0,0,0,0,0,0,0,0,-0.4732,-0.4734,-0.4823,-0.4824,-0.4824,-0.4882,-0.4883,-0.4884,-0.4907,-0.4906,-0.4906,-0.4906,-0.4967,-0.497,-0.4972,0,0,0,0,0,0,0,0,0,0,0,0,0,-0.478,-0.4734,-0.4823,-0.4843,-0.4845,-0.4882,-0.4883,-0.4884,-0.4907,-0.4906,-0.4906,-0.4906,-0.4967,-0.4969,-0.4972,-0.4994,0,0,-0.498,-0.4981,0,0,0,0,0,0,0,0,-0.4777,-0.4783,-0.4839,-0.4842,-0.4844,-0.4887,-0.4874,-0.4921,-0.4907,-0.4883,-0.4906,-0.4906,-0.4941,-0.4946,-0.4958,-0.4997,-0.4999,-0.4981,-0.4982,-0.4983,-0.4984,0,0,0,0,0,0,0,-0.4774,-0.4781,-0.4846,-0.484,-0.4843,-0.485,-0.4856,-0.4883,-0.4913,-0.4885,-0.4887,-0.4894,-0.4943,-0.4955,-0.4959,-0.5,-0.498,-0.4983,-0.4985,-0.4986,-0.5061,-0.5061,0,0,0,0,0,0,-0.4767,-0.4778,-0.4845,-0.4848,-0.4809,-0.4851,-0.4859,-0.4873,-0.4913,-0.4919,-0.4894,-0.4895,-0.4951,-0.4956,-0.4962,-0.499,-0.4983,-0.4986,-0.4987,-0.506,-0.5061,-0.5061,0,0,0,0,0,0,-0.4765,-0.4772,-0.4842,-0.4813,-0.4823,-0.4853,-0.487,-0.4875,-0.4887,-0.4919,-0.4925,-0.4901,-0.4951,-0.4958,-0.4986,-0.4993,-0.4987,-0.499,-0.506,-0.5061,-0.5061,-0.5047,0,0,0,0,0,0,-0.4762,-0.4772,-0.4779,-0.4813,-0.4824,-0.4864,-0.487,-0.4876,-0.4892,-0.4893,-0.4927,-0.4933,-0.4951,-0.4982,-0.4988,-0.4996,-0.4992,-0.506,-0.506,-0.5061,-0.5047,-0.5047,-0.5047,0,0,0,0,0,-0.4759,-0.4773,-0.478,-0.4788,-0.4835,-0.4865,-0.4871,-0.4891,-0.4892,-0.4901,-0.4922,-0.4932,-0.4991,-0.4984,-0.4992,-0.5001,-0.5059,-0.506,-0.5061,-0.5047,-0.5047,-0.5047,0,0,0,0,0,0,-0.474,-0.4778,-0.4786,-0.4811,-0.4835,-0.4869,-0.488,-0.4891,-0.4914,-0.4915,-0.4939,-0.4947,-0.4973,-0.499,-0.4982,-0.5024,-0.5026,-0.5028,-0.5012,-0.5013,-0.5013,-0.5008,-0.4994,0,0,0,0,0,-0.4738,-0.4759,-0.4792,-0.4811,-0.4822,-0.4849,-0.4863,-0.4877,-0.4902,-0.4912,-0.4935,-0.4959,-0.4984,-0.4999,-0.5023,-0.5049,-0.5058,-0.5059,-0.5059,-0.5059,-0.5061,-0.5077,-0.5078,-0.5064,-0.5064,-0.5064,0,0,-0.4736,-0.4759,-0.4771,-0.4808,-0.4828,-0.4849,-0.4857,-0.488,-0.4896,-0.4916,-0.4943,-0.4961,-0.499,-0.5017,-0.5031,-0.5032,-0.5067,-0.506,-0.506,-0.5062,-0.5078,-0.5079,-0.5081,-0.5065,-0.5065,-0.5064,0,0,-0.4743,-0.4762,-0.4781,-0.4801,-0.483,-0.4848,-0.4852,-0.4885,-0.4898,-0.4926,-0.4941,-0.4962,-0.5002,-0.5023,-0.5039,-0.5054,-0.5065,-0.5061,-0.5061,-0.5077,-0.5078,-0.5079,-0.5085,-0.5087,-0.5063,-0.5063,-0.5063,0,-0.4736,-0.4768,-0.479,-0.4811,-0.4827,-0.4846,-0.4866,-0.4884,-0.492,-0.4931,-0.4932,-0.4985,-0.5006,-0.5038,-0.5042,-0.5054,-0.5061,-0.5057,-0.5076,-0.5077,-0.5079,-0.5085,-0.5087,-0.5063,-0.5063,-0.5063,-0.5063,0,-0.4759,-0.4782,-0.4793,-0.4827,-0.4845,-0.4866,-0.4891,-0.4906,-0.4919,-0.4937,-0.4966,-0.4992,-0.5021,-0.503,-0.5043,-0.5065,-0.5065,-0.5071,-0.5073,-0.5079,-0.5085,-0.5088,-0.5062,-0.5062,-0.5062,-0.5062,0,0,-0.4755,-0.4801,-0.4805,-0.4821,-0.4855,-0.4873,-0.4895,-0.4924,-0.4937,-0.4962,-0.4981,-0.5016,-0.5022,-0.504,-0.5055,-0.5068,-0.508,-0.5072,-0.5073,-0.5073,-0.5107,-0.5102,-0.5105,-0.5087,-0.5088,-0.5088,-0.5105,0,-0.4767,-0.4806,-0.4826,-0.4857,-0.4878,-0.4897,-0.4916,-0.494,-0.4957,-0.4979,-0.4999,-0.5023,-0.5028,-0.5039,-0.5054,-0.5075,-0.5087,-0.5074,-0.5106,-0.5107,-0.5098,-0.5108,-0.5103,-0.5117,-0.5107,-0.5107,-0.5108,0,-0.4785,-0.4809,-0.4842,-0.4874,-0.4884,-0.4901,-0.493,-0.495,-0.4977,-0.499,-0.501,-0.5025,-0.505,-0.505,-0.5085,-0.5076,-0.509,-0.5103,-0.5104,-0.5108,-0.5108,-0.5112,-0.5122,-0.5125,-0.5112,-0.5111,-0.5111,0,-0.4779,-0.482,-0.4845,-0.4858,-0.4896,-0.4908,-0.4925,-0.4952,-0.4969,-0.4994,-0.5005,-0.5033,-0.5048,-0.507,-0.5093,-0.5091,-0.5126,-0.5128,-0.5137,-0.5137,-0.5144,-0.5143,-0.5157,-0.5153,-0.5153,-0.5153,-0.5153,0,-0.479,-0.4809,-0.4843,-0.4858,-0.4881,-0.4904,-0.4927,-0.4945,-0.4969,-0.4989,-0.5007,-0.5026,-0.5054,-0.5077,-0.5095,-0.5122,-0.5128,-0.5139,-0.5144,-0.5138,-0.5136,-0.5148,-0.5147,-0.5153,-0.5153,-0.5153,-0.5153,0,-0.4787,-0.481,-0.4838,-0.4873,-0.4882,-0.4897,-0.4927,-0.4943,-0.4962,-0.4987,-0.4995,-0.5024,-0.5052,-0.5077,-0.5113,-0.5125,-0.5153,-0.5158,-0.5143,-0.5146,-0.5154,-0.5153,-0.5175,-0.5179,-0.5172,-0.5172,-0.5172,0,-0.4792,-0.4807,-0.4843,-0.4858,-0.4874,-0.4897,-0.4914,-0.4938,-0.4955,-0.4988,-0.5001,-0.5029,-0.5054,-0.5097,-0.5122,-0.5151,-0.5157,-0.5163,-0.5162,-0.5155,-0.5158,-0.5157,-0.5159,-0.5163,-0.5163,-0.5163,-0.5163,0,-0.4799,-0.481,-0.4833,-0.4861,-0.488,-0.4903,-0.4927,-0.4938,-0.4967,-0.4985,-0.5013,-0.5032,-0.5069,-0.5098,-0.5129,-0.5148,-0.516,-0.5163,-0.5167,-0.5161,-0.5152,-0.5157,-0.5143,-0.5163,-0.5163,-0.5163,-0.5163,-0.5163,-0.4801,-0.4816,-0.4843,-0.4869,-0.4889,-0.4911,-0.4928,-0.4949,-0.4973,-0.5005,-0.5018,-0.5047,-0.5075,-0.5118,-0.5137,-0.516,-0.5163,-0.5168,-0.5169,-0.517,-0.5169,-0.5148,-0.5166,-0.5166,-0.5166,-0.5166,-0.5166,0,-0.4809,-0.4828,-0.4851,-0.4884,-0.4904,-0.4914,-0.4941,-0.4957,-0.4982,-0.5007,-0.5031,-0.5064,-0.5092,-0.512,-0.515,-0.5163,-0.517,-0.517,-0.517,-0.5174,-0.5165,-0.5159,-0.5164,-0.5164,-0.5164,-0.5164,-0.5164,-0.5164,-0.4816,-0.4842,-0.4856,-0.4893,-0.4912,-0.4939,-0.4954,-0.4975,-0.4995,-0.5031,-0.5054,-0.5072,-0.5098,-0.513,-0.5157,-0.5165,-0.5175,-0.5174,-0.5183,-0.5174,-0.5174,-0.5174,-0.5169,-0.5176,-0.5176,-0.519,-0.519,-0.519]}]]